Time,TemperatureF,DewpointF,PressureIn,WindDirection,WindDirectionDegrees,WindSpeedMPH,WindSpeedGustMPH,Humidity,HourlyPrecipIn,Conditions,Clouds,dailyrainin,SoftwareType,DateUTC
2013-01-23 00:03:00,54.0,40.0,30.26,NNE,29,0.0,0.0,58,0.00,,,0.00,,2013-01-23 05:03:00,
2013-01-23 00:12:00,54.0,40.0,30.26,NNE,29,0.0,0.0,58,0.00,,,0.00,,2013-01-23 05:12:00,
2013-01-23 00:22:00,54.0,40.0,30.25,NNE,32,0.0,0.0,60,0.00,,,0.00,,2013-01-23 05:22:00,
2013-01-23 00:33:00,54.0,42.0,30.25,NNE,32,0.0,0.0,63,0.00,,,0.00,,2013-01-23 05:33:00,
2013-01-23 00:43:00,54.0,42.0,30.25,NNE,32,0.0,0.0,63,0.00,,,0.00,,2013-01-23 05:43:00,
2013-01-23 00:53:00,54.0,41.0,30.25,NE,37,0.0,0.0,61,0.00,,,0.00,,2013-01-23 05:53:00,
2013-01-23 01:02:00,53.0,40.0,30.24,NE,37,1.0,4.0,61,0.00,,,0.00,,2013-01-23 06:02:00,
2013-01-23 01:12:00,53.0,40.0,30.24,NE,37,1.0,4.0,61,0.00,,,0.00,,2013-01-23 06:12:00,
2013-01-23 01:22:00,53.0,40.0,30.24,NE,42,0.0,2.0,62,0.00,,,0.00,,2013-01-23 06:22:00,
2013-01-23 01:32:00,53.0,40.0,30.25,NE,39,0.0,1.0,62,0.00,,,0.00,,2013-01-23 06:32:00,
2013-01-23 01:43:00,53.0,40.0,30.25,NE,39,0.0,1.0,62,0.00,,,0.00,,2013-01-23 06:43:00,
2013-01-23 01:53:00,53.0,41.0,30.25,NNE,23,0.0,2.0,64,0.00,,,0.00,,2013-01-23 06:53:00,
2013-01-23 02:02:00,53.0,41.0,30.25,NE,46,0.0,0.0,64,0.00,,,0.00,,2013-01-23 07:02:00,
2013-01-23 02:12:00,53.0,41.0,30.25,NE,46,0.0,0.0,64,0.00,,,0.00,,2013-01-23 07:12:00,
2013-01-23 02:22:00,53.0,42.0,30.25,NE,46,0.0,0.0,65,0.00,,,0.00,,2013-01-23 07:22:00,
2013-01-23 02:33:00,52.0,41.0,30.25,NE,46,0.0,0.0,66,0.00,,,0.00,,2013-01-23 07:33:00,
2013-01-23 02:42:00,52.0,41.0,30.25,NE,46,0.0,0.0,66,0.00,,,0.00,,2013-01-23 07:42:00,
2013-01-23 02:53:00,52.0,41.0,30.25,NE,46,0.0,0.0,67,0.00,,,0.00,,2013-01-23 07:53:00,
2013-01-23 03:02:00,52.0,41.0,30.24,NE,48,0.0,1.0,67,0.00,,,0.00,,2013-01-23 08:02:00,
2013-01-23 03:13:00,52.0,41.0,30.24,NE,48,0.0,1.0,67,0.00,,,0.00,,2013-01-23 08:13:00,
2013-01-23 03:23:00,52.0,42.0,30.25,NE,49,0.0,0.0,68,0.00,,,0.00,,2013-01-23 08:23:00,
2013-01-23 03:33:00,52.0,42.0,30.25,NNE,24,0.0,2.0,69,0.00,,,0.00,,2013-01-23 08:33:00,
2013-01-23 03:43:00,52.0,42.0,30.25,NNE,24,0.0,2.0,69,0.00,,,0.00,,2013-01-23 08:43:00,
2013-01-23 03:53:00,51.0,42.0,30.25,NNE,22,0.0,1.0,70,0.00,,,0.00,,2013-01-23 08:53:00,
2013-01-23 04:03:00,51.0,42.0,30.25,NE,53,1.0,3.0,71,0.00,,,0.00,,2013-01-23 09:03:00,
2013-01-23 04:12:00,51.0,42.0,30.25,NE,53,1.0,3.0,71,0.00,,,0.00,,2013-01-23 09:12:00,
2013-01-23 04:22:00,51.0,42.0,30.26,NNE,19,1.0,5.0,70,0.00,,,0.00,,2013-01-23 09:22:00,
2013-01-23 04:33:00,51.0,41.0,30.26,NE,36,0.0,4.0,69,0.00,,,0.00,,2013-01-23 09:33:00,
2013-01-23 04:43:00,51.0,41.0,30.26,NE,36,0.0,4.0,69,0.00,,,0.00,,2013-01-23 09:43:00,
2013-01-23 04:53:00,51.0,41.0,30.26,NNE,32,2.0,7.0,69,0.00,,,0.00,,2013-01-23 09:53:00,
2013-01-23 05:03:00,51.0,41.0,30.26,NNE,16,3.0,6.0,69,0.00,,,0.00,,2013-01-23 10:03:00,
2013-01-23 05:12:00,51.0,41.0,30.26,NNE,16,3.0,6.0,69,0.00,,,0.00,,2013-01-23 10:12:00,
2013-01-23 05:23:00,51.0,42.0,30.26,NE,54,3.0,6.0,70,0.00,,,0.00,,2013-01-23 10:23:00,
2013-01-23 05:33:00,51.0,41.0,30.27,NNE,24,3.0,7.0,69,0.00,,,0.00,,2013-01-23 10:33:00,
2013-01-23 05:43:00,51.0,41.0,30.27,NNE,24,3.0,7.0,69,0.00,,,0.00,,2013-01-23 10:43:00,
2013-01-23 05:53:00,50.0,40.0,30.27,NE,39,3.0,6.0,69,0.00,,,0.00,,2013-01-23 10:53:00,
2013-01-23 06:03:00,50.0,40.0,30.28,NE,56,2.0,6.0,69,0.00,,,0.00,,2013-01-23 11:03:00,
2013-01-23 06:12:00,50.0,40.0,30.28,NE,56,2.0,6.0,69,0.00,,,0.00,,2013-01-23 11:12:00,
2013-01-23 06:23:00,50.0,41.0,30.28,East,92,1.0,4.0,70,0.00,,,0.00,,2013-01-23 11:23:00,
2013-01-23 06:33:00,49.0,40.0,30.29,NE,51,2.0,5.0,70,0.00,,,0.00,,2013-01-23 11:33:00,
2013-01-23 06:43:00,49.0,40.0,30.29,NE,51,2.0,5.0,70,0.00,,,0.00,,2013-01-23 11:43:00,
2013-01-23 06:53:00,49.0,40.0,30.29,NE,46,0.0,4.0,71,0.00,,,0.00,,2013-01-23 11:53:00,
2013-01-23 07:03:00,48.0,39.0,30.29,ENE,57,0.0,4.0,72,0.00,,,0.00,,2013-01-23 12:03:00,
2013-01-23 07:13:00,48.0,39.0,30.29,ENE,57,0.0,4.0,72,0.00,,,0.00,,2013-01-23 12:13:00,
2013-01-23 07:22:00,48.0,39.0,30.30,NE,56,1.0,5.0,72,0.00,,,0.00,,2013-01-23 12:22:00,
2013-01-23 07:33:00,48.0,39.0,30.31,NE,48,1.0,5.0,71,0.00,,,0.00,,2013-01-23 12:33:00,
2013-01-23 07:43:00,48.0,39.0,30.31,NE,48,1.0,5.0,71,0.00,,,0.00,,2013-01-23 12:43:00,
2013-01-23 07:53:00,48.0,39.0,30.31,ENE,61,2.0,7.0,70,0.00,,,0.00,,2013-01-23 12:53:00,
2013-01-23 08:04:00,48.0,39.0,30.31,NE,34,2.0,5.0,70,0.00,,,0.00,,2013-01-23 13:04:00,
2013-01-23 08:13:00,48.0,39.0,30.31,NE,34,2.0,5.0,70,0.00,,,0.00,,2013-01-23 13:13:00,
2013-01-23 08:23:00,48.0,39.0,30.32,NE,35,2.0,6.0,70,0.00,,,0.00,,2013-01-23 13:23:00,
2013-01-23 08:33:00,48.0,38.0,30.32,NE,40,3.0,6.0,69,0.00,,,0.00,,2013-01-23 13:33:00,
2013-01-23 08:42:00,48.0,38.0,30.32,NE,40,3.0,6.0,69,0.00,,,0.00,,2013-01-23 13:42:00,
2013-01-23 08:53:00,50.0,39.0,30.32,NE,34,5.0,7.0,65,0.00,,,0.00,,2013-01-23 13:53:00,
2013-01-23 09:03:00,51.0,39.0,30.32,NNE,27,4.0,9.0,63,0.00,,,0.00,,2013-01-23 14:03:00,
2013-01-23 09:12:00,51.0,39.0,30.32,NNE,27,4.0,9.0,63,0.00,,,0.00,,2013-01-23 14:12:00,
2013-01-23 09:23:00,52.0,39.0,30.33,NNE,13,3.0,7.0,60,0.00,,,0.00,,2013-01-23 14:23:00,
2013-01-23 09:33:00,53.0,38.0,30.33,NNE,23,4.0,7.0,57,0.00,,,0.00,,2013-01-23 14:33:00,
2013-01-23 09:43:00,53.0,38.0,30.33,NNE,23,4.0,7.0,57,0.00,,,0.00,,2013-01-23 14:43:00,
2013-01-23 09:53:00,55.0,38.0,30.34,NE,39,5.0,8.0,53,0.00,,,0.00,,2013-01-23 14:53:00,
2013-01-23 10:03:00,57.0,39.0,30.34,NNE,19,3.0,8.0,51,0.00,,,0.00,,2013-01-23 15:03:00,
2013-01-23 10:13:00,57.0,39.0,30.34,NNE,19,3.0,8.0,51,0.00,,,0.00,,2013-01-23 15:13:00,
2013-01-23 10:23:00,58.0,38.0,30.34,NE,55,3.0,7.0,48,0.00,,,0.00,,2013-01-23 15:23:00,
2013-01-23 10:33:00,59.0,37.0,30.34,ENE,62,5.0,9.0,44,0.00,,,0.00,,2013-01-23 15:33:00,
2013-01-23 10:43:00,59.0,37.0,30.34,ENE,62,5.0,9.0,44,0.00,,,0.00,,2013-01-23 15:43:00,
2013-01-23 10:53:00,61.0,38.0,30.34,NNE,30,5.0,12.0,42,0.00,,,0.00,,2013-01-23 15:53:00,
2013-01-23 11:03:00,63.0,38.0,30.34,NNE,18,5.0,8.0,39,0.00,,,0.00,,2013-01-23 16:03:00,
2013-01-23 11:12:00,63.0,38.0,30.34,NNE,18,5.0,8.0,39,0.00,,,0.00,,2013-01-23 16:12:00,
2013-01-23 11:23:00,64.0,39.0,30.34,NNE,32,4.0,9.0,40,0.00,,,0.00,,2013-01-23 16:23:00,
2013-01-23 11:33:00,65.0,38.0,30.34,NNE,17,5.0,9.0,37,0.00,,,0.00,,2013-01-23 16:33:00,
2013-01-23 11:42:00,65.0,38.0,30.34,NNE,17,5.0,9.0,37,0.00,,,0.00,,2013-01-23 16:42:00,
2013-01-23 11:53:00,66.0,39.0,30.33,NE,38,4.0,8.0,37,0.00,,,0.00,,2013-01-23 16:53:00,
2013-01-23 12:03:00,66.0,38.0,30.32,NE,44,5.0,9.0,36,0.00,,,0.00,,2013-01-23 17:03:00,
2013-01-23 12:12:00,66.0,38.0,30.32,NE,44,5.0,9.0,36,0.00,,,0.00,,2013-01-23 17:12:00,
2013-01-23 12:23:00,68.0,40.0,30.31,NNE,13,4.0,7.0,36,0.00,,,0.00,,2013-01-23 17:23:00,
2013-01-23 12:33:00,68.0,39.0,30.31,NNE,30,3.0,7.0,35,0.00,,,0.00,,2013-01-23 17:33:00,
2013-01-23 12:42:00,68.0,39.0,30.31,NNE,30,3.0,7.0,35,0.00,,,0.00,,2013-01-23 17:42:00,
2013-01-23 12:53:00,68.0,38.0,30.30,NE,36,5.0,8.0,33,0.00,,,0.00,,2013-01-23 17:53:00,
2013-01-23 13:03:00,69.0,38.0,30.29,NE,46,3.0,9.0,32,0.00,,,0.00,,2013-01-23 18:03:00,
2013-01-23 13:12:00,69.0,38.0,30.29,NE,46,3.0,9.0,32,0.00,,,0.00,,2013-01-23 18:12:00,
2013-01-23 13:23:00,70.0,36.0,30.28,NNE,22,4.0,9.0,29,0.00,,,0.00,,2013-01-23 18:23:00,
2013-01-23 13:33:00,70.0,36.0,30.28,NNE,22,4.0,9.0,29,0.00,,,0.00,,2013-01-23 18:33:00,
2013-01-23 13:43:00,71.0,37.0,30.27,NNE,25,4.0,8.0,29,0.00,,,0.00,,2013-01-23 18:43:00,
2013-01-23 13:53:00,71.0,37.0,30.26,NNE,18,3.0,9.0,29,0.00,,,0.00,,2013-01-23 18:53:00,
2013-01-23 14:03:00,72.0,38.0,30.26,NW,312,3.0,5.0,29,0.00,,,0.00,,2013-01-23 19:03:00,
2013-01-23 14:13:00,72.0,38.0,30.26,NW,312,3.0,5.0,29,0.00,,,0.00,,2013-01-23 19:13:00,
2013-01-23 14:23:00,72.0,41.0,30.26,NNE,15,3.0,8.0,33,0.00,,,0.00,,2013-01-23 19:23:00,
2013-01-23 14:33:00,72.0,37.0,30.25,NNE,33,6.0,9.0,28,0.00,,,0.00,,2013-01-23 19:33:00,
2013-01-23 14:43:00,72.0,37.0,30.25,NNE,33,6.0,9.0,28,0.00,,,0.00,,2013-01-23 19:43:00,
2013-01-23 14:53:00,72.0,38.0,30.25,NNW,341,5.0,9.0,29,0.00,,,0.00,,2013-01-23 19:53:00,
2013-01-23 15:03:00,72.0,40.0,30.24,NW,320,6.0,9.0,31,0.00,,,0.00,,2013-01-23 20:03:00,
2013-01-23 15:13:00,72.0,40.0,30.24,NW,320,6.0,9.0,31,0.00,,,0.00,,2013-01-23 20:13:00,
2013-01-23 15:23:00,72.0,41.0,30.25,NNW,340,4.0,11.0,33,0.00,,,0.00,,2013-01-23 20:23:00,
2013-01-23 15:33:00,71.0,40.0,30.24,NNW,340,4.0,8.0,33,0.00,,,0.00,,2013-01-23 20:33:00,
2013-01-23 15:43:00,71.0,40.0,30.24,NNW,340,4.0,8.0,33,0.00,,,0.00,,2013-01-23 20:43:00,
2013-01-23 15:54:00,71.0,41.0,30.24,NNE,25,5.0,10.0,34,0.00,,,0.00,,2013-01-23 20:54:00,
2013-01-23 16:03:00,71.0,40.0,30.24,North,360,6.0,9.0,33,0.00,,,0.00,,2013-01-23 21:03:00,
2013-01-23 16:12:00,71.0,40.0,30.24,North,360,6.0,9.0,33,0.00,,,0.00,,2013-01-23 21:12:00,
2013-01-23 16:23:00,71.0,43.0,30.25,NE,38,3.0,9.0,36,0.00,,,0.00,,2013-01-23 21:23:00,
2013-01-23 16:33:00,71.0,43.0,30.25,NNE,27,3.0,7.0,37,0.00,,,0.00,,2013-01-23 21:33:00,
2013-01-23 16:43:00,71.0,43.0,30.25,NNE,27,3.0,7.0,37,0.00,,,0.00,,2013-01-23 21:43:00,
2013-01-23 16:53:00,71.0,41.0,30.25,NW,323,3.0,8.0,34,0.00,,,0.00,,2013-01-23 21:53:00,
2013-01-23 17:03:00,70.0,41.0,30.25,NW,321,4.0,8.0,35,0.00,,,0.00,,2013-01-23 22:03:00,
2013-01-23 17:12:00,70.0,41.0,30.25,NW,321,4.0,8.0,35,0.00,,,0.00,,2013-01-23 22:12:00,
2013-01-23 17:23:00,69.0,41.0,30.25,NW,322,3.0,7.0,36,0.00,,,0.00,,2013-01-23 22:23:00,
2013-01-23 17:33:00,69.0,42.0,30.26,NW,320,4.0,6.0,37,0.00,,,0.00,,2013-01-23 22:33:00,
2013-01-23 17:42:00,69.0,42.0,30.26,NW,320,4.0,6.0,37,0.00,,,0.00,,2013-01-23 22:42:00,
2013-01-23 17:53:00,68.0,43.0,30.26,NNW,331,4.0,6.0,40,0.00,,,0.00,,2013-01-23 22:53:00,
2013-01-23 18:03:00,67.0,44.0,30.26,WNW,303,3.0,6.0,43,0.00,,,0.00,,2013-01-23 23:03:00,
2013-01-23 18:13:00,67.0,44.0,30.26,WNW,303,3.0,6.0,43,0.00,,,0.00,,2013-01-23 23:13:00,
2013-01-23 18:23:00,66.0,46.0,30.26,WNW,301,3.0,5.0,48,0.00,,,0.00,,2013-01-23 23:23:00,
2013-01-23 18:33:00,64.0,47.0,30.26,WSW,249,2.0,6.0,55,0.00,,,0.00,,2013-01-23 23:33:00,
2013-01-23 18:43:00,64.0,47.0,30.26,WSW,249,2.0,6.0,55,0.00,,,0.00,,2013-01-23 23:43:00,
2013-01-23 18:53:00,63.0,50.0,30.27,West,274,1.0,4.0,62,0.00,,,0.00,,2013-01-23 23:53:00,
2013-01-23 19:03:00,62.0,51.0,30.27,West,273,1.0,4.0,66,0.00,,,0.00,,2013-01-24 00:03:00,
2013-01-23 19:12:00,62.0,51.0,30.27,West,273,1.0,4.0,66,0.00,,,0.00,,2013-01-24 00:12:00,
2013-01-23 19:22:00,62.0,52.0,30.27,West,270,0.0,2.0,70,0.00,,,0.00,,2013-01-24 00:22:00,
2013-01-23 19:32:00,61.0,51.0,30.27,WNW,298,0.0,4.0,70,0.00,,,0.00,,2013-01-24 00:32:00,
2013-01-23 19:43:00,61.0,51.0,30.27,WNW,298,0.0,4.0,70,0.00,,,0.00,,2013-01-24 00:43:00,
2013-01-23 19:53:00,61.0,51.0,30.27,NW,314,3.0,4.0,70,0.00,,,0.00,,2013-01-24 00:53:00,
2013-01-23 20:03:00,60.0,50.0,30.28,NW,323,0.0,3.0,70,0.00,,,0.00,,2013-01-24 01:03:00,
2013-01-23 20:12:00,60.0,50.0,30.28,NW,323,0.0,3.0,70,0.00,,,0.00,,2013-01-24 01:12:00,
2013-01-23 20:23:00,59.0,49.0,30.29,NNW,331,1.0,4.0,69,0.00,,,0.00,,2013-01-24 01:23:00,
2013-01-23 20:33:00,59.0,48.0,30.29,NNW,340,3.0,7.0,68,0.00,,,0.00,,2013-01-24 01:33:00,
2013-01-23 20:42:00,59.0,48.0,30.29,NNW,340,3.0,7.0,68,0.00,,,0.00,,2013-01-24 01:42:00,
2013-01-23 20:53:00,59.0,49.0,30.29,NE,36,0.0,3.0,70,0.00,,,0.00,,2013-01-24 01:53:00,
2013-01-23 21:02:00,58.0,48.0,30.29,NNE,20,2.0,6.0,70,0.00,,,0.00,,2013-01-24 02:02:00,
2013-01-23 21:12:00,58.0,48.0,30.29,NNE,20,2.0,6.0,70,0.00,,,0.00,,2013-01-24 02:12:00,
2013-01-23 21:23:00,58.0,49.0,30.29,NW,313,0.0,3.0,72,0.00,,,0.00,,2013-01-24 02:23:00,
2013-01-23 21:33:00,58.0,49.0,30.29,NW,313,0.0,0.0,73,0.00,,,0.00,,2013-01-24 02:33:00,
2013-01-23 21:42:00,58.0,49.0,30.29,NW,313,0.0,0.0,73,0.00,,,0.00,,2013-01-24 02:42:00,
2013-01-23 21:52:00,58.0,49.0,30.29,NW,313,0.0,0.0,73,0.00,,,0.00,,2013-01-24 02:52:00,
2013-01-23 22:03:00,57.0,50.0,30.29,NW,313,0.0,0.0,77,0.00,,,0.00,,2013-01-24 03:03:00,
2013-01-23 22:12:00,57.0,50.0,30.29,NW,313,0.0,0.0,77,0.00,,,0.00,,2013-01-24 03:12:00,
2013-01-23 22:22:00,56.0,50.0,30.29,NW,313,0.0,0.0,79,0.00,,,0.00,,2013-01-24 03:22:00,
2013-01-23 22:33:00,55.0,50.0,30.29,NW,313,0.0,0.0,82,0.00,,,0.00,,2013-01-24 03:33:00,
2013-01-23 22:43:00,55.0,50.0,30.29,NW,313,0.0,0.0,82,0.00,,,0.00,,2013-01-24 03:43:00,
2013-01-23 22:53:00,55.0,50.0,30.29,NW,313,0.0,0.0,84,0.00,,,0.00,,2013-01-24 03:53:00,
2013-01-23 23:02:00,55.0,50.0,30.29,NW,313,0.0,0.0,84,0.00,,,0.00,,2013-01-24 04:02:00,
2013-01-23 23:12:00,55.0,50.0,30.29,NW,313,0.0,0.0,84,0.00,,,0.00,,2013-01-24 04:12:00,
2013-01-23 23:22:00,54.0,49.0,30.28,North,5,0.0,2.0,83,0.00,,,0.00,,2013-01-24 04:22:00,
2013-01-23 23:33:00,54.0,48.0,30.28,NE,34,0.0,1.0,81,0.00,,,0.00,,2013-01-24 04:33:00,
2013-01-23 23:42:00,54.0,48.0,30.28,NE,34,0.0,1.0,81,0.00,,,0.00,,2013-01-24 04:42:00,
2013-01-23 23:53:00,53.0,47.0,30.28,NE,43,1.0,3.0,79,0.00,,,0.00,,2013-01-24 04:53:00,